[[{"header":{"parameterUnit":"m.s-1","parameterCategory":1,"la1":30.2991,"la2":30.254,"lo1":-89.0895,"lo2":-89.0444,"dy":0.0017,"dx":0.0017,"nx":28,"ny":28,"refTime":"2023-11-05T09:00:00:Z","depth":0,"parameterNumber":2,"parameterNumberName":"U-component_of_WINDS"},"data":[0,0,0,0,0,0,0,0,0,0,0,0,0,0,0,0,0,0,0,0,0,0,0,0,0,0,0,0,0,0,0,0,0,0,0,0,0,0,0,0,0,0,0,0,0,0,0,0,0,0,0,0,0,0,0,0,0,0,0.9802,0.9803,0,0.9832,0.9832,0.9832,0.9844,0.9844,0.9844,0.9844,0.9872,0.9873,0.9874,0,0,0,0,0,0,0,0,0,0,0,0,0,0.9754,0.9755,0.9802,0.9803,0.9803,0.9832,0.9832,0.9832,0.9844,0.9844,0.9844,0.9844,0.9872,0.9873,0.9874,0,0,0,0,0,0,0,0,0,0,0,0,0,0.9778,0.9755,0.9802,0.9812,0.9813,0.9831,0.9832,0.9832,0.9844,0.9844,0.9844,0.9844,0.9872,0.9873,0.9874,0.9884,0,0,0.9878,0.9879,0,0,0,0,0,0,0,0,0.9777,0.978,0.981,0.9812,0.9813,0.9834,0.9825,0.985,0.9844,0.9832,0.9844,0.9844,0.986,0.9862,0.9868,0.9885,0.9887,0.9878,0.9879,0.9879,0.988,0,0,0,0,0,0,0,0.9775,0.9779,0.9814,0.9811,0.9812,0.9814,0.9818,0.983,0.9846,0.9833,0.9834,0.9838,0.986,0.9866,0.9868,0.9887,0.9878,0.9879,0.988,0.988,0.9912,0.9913,0,0,0,0,0,0,0.9772,0.9777,0.9813,0.9815,0.9794,0.9815,0.9819,0.9827,0.9846,0.9849,0.9838,0.9838,0.9864,0.9867,0.9869,0.9881,0.9879,0.9881,0.9881,0.9912,0.9912,0.9913,0,0,0,0,0,0,0.9771,0.9775,0.9812,0.9796,0.9801,0.9816,0.9825,0.9828,0.9834,0.9849,0.9852,0.9841,0.9864,0.9868,0.988,0.9882,0.9881,0.9882,0.9912,0.9912,0.9912,0.9905,0,0,0,0,0,0,0.9769,0.9775,0.9779,0.9796,0.9802,0.9823,0.9826,0.9829,0.9836,0.9837,0.9853,0.9856,0.9864,0.9878,0.9881,0.9884,0.9883,0.9912,0.9912,0.9912,0.9905,0.9905,0.9905,0,0,0,0,0,0.9768,0.9776,0.9779,0.9784,0.9808,0.9823,0.9826,0.9836,0.9837,0.9841,0.985,0.9855,0.9881,0.9879,0.9883,0.9886,0.9912,0.9912,0.9912,0.9905,0.9905,0.9905,0,0,0,0,0,0,0.9759,0.9779,0.9782,0.9797,0.9808,0.9825,0.9831,0.9836,0.9847,0.9847,0.9858,0.9862,0.9873,0.9881,0.9878,0.9895,0.9897,0.9898,0.989,0.989,0.989,0.9888,0.9884,0,0,0,0,0,0.9759,0.977,0.9786,0.9797,0.9802,0.9815,0.9822,0.9829,0.9841,0.9845,0.9856,0.9867,0.9877,0.9884,0.9895,0.9906,0.9909,0.991,0.991,0.9909,0.991,0.9915,0.9916,0.9913,0.9913,0.9913,0,0,0.9758,0.977,0.9776,0.9795,0.9805,0.9815,0.9819,0.983,0.9838,0.9847,0.9859,0.9867,0.988,0.9891,0.9897,0.9898,0.9911,0.991,0.9909,0.991,0.9916,0.9916,0.9916,0.9913,0.9913,0.9913,0,0,0.9762,0.9773,0.9783,0.9792,0.9806,0.9814,0.9817,0.9832,0.9838,0.985,0.9857,0.9866,0.9884,0.9892,0.9899,0.9905,0.9909,0.9908,0.9907,0.9911,0.9912,0.9912,0.9913,0.9913,0.9908,0.9908,0.9908,0,0.976,0.9776,0.9787,0.9797,0.9805,0.9813,0.9823,0.9831,0.9848,0.9852,0.9853,0.9875,0.9885,0.9898,0.9899,0.9904,0.9906,0.9906,0.9911,0.9911,0.9911,0.9913,0.9913,0.9908,0.9908,0.9908,0.9908,0,0.9772,0.9783,0.9789,0.9805,0.9813,0.9822,0.9834,0.984,0.9846,0.9854,0.9865,0.9877,0.9889,0.9893,0.9898,0.9906,0.9906,0.9909,0.991,0.9911,0.9912,0.9913,0.9907,0.9908,0.9908,0.9908,0,0,0.9772,0.9793,0.9795,0.9802,0.9817,0.9826,0.9835,0.9847,0.9852,0.9863,0.987,0.9885,0.9887,0.9895,0.9901,0.9905,0.9908,0.9907,0.9908,0.9907,0.9916,0.9913,0.9914,0.9911,0.9911,0.9911,0.9914,0,0.9778,0.9796,0.9805,0.9819,0.9828,0.9836,0.9844,0.9853,0.986,0.9869,0.9877,0.9886,0.9889,0.9893,0.9898,0.9906,0.991,0.9906,0.9917,0.9917,0.9913,0.9915,0.9912,0.9915,0.9915,0.9915,0.9915,0,0.9788,0.9798,0.9813,0.9826,0.983,0.9837,0.9848,0.9857,0.9867,0.9872,0.988,0.9886,0.9895,0.9895,0.9907,0.9905,0.9909,0.9914,0.9914,0.9916,0.9916,0.9915,0.9916,0.9916,0.9916,0.9916,0.9916,0,0.9786,0.9803,0.9814,0.982,0.9835,0.984,0.9847,0.9857,0.9864,0.9873,0.9877,0.9887,0.9893,0.99,0.9908,0.9908,0.9919,0.9921,0.9922,0.9922,0.9925,0.9924,0.9926,0.9928,0.9928,0.9928,0.9928,0,0.9791,0.98,0.9813,0.982,0.9829,0.9838,0.9847,0.9854,0.9863,0.987,0.9877,0.9884,0.9894,0.9902,0.9908,0.9916,0.9919,0.9922,0.9924,0.9922,0.9921,0.9925,0.9925,0.9928,0.9928,0.9928,0.9928,0,0.9791,0.98,0.9812,0.9826,0.9829,0.9835,0.9846,0.9852,0.9859,0.9868,0.9871,0.9882,0.9891,0.99,0.9912,0.9916,0.9924,0.9926,0.992,0.9921,0.9922,0.9922,0.9926,0.9927,0.9929,0.9929,0.9929,0,0.9794,0.98,0.9814,0.9819,0.9826,0.9835,0.9841,0.985,0.9856,0.9868,0.9872,0.9882,0.989,0.9904,0.9912,0.9921,0.9923,0.9924,0.9925,0.9922,0.9923,0.9922,0.9922,0.9924,0.9924,0.9924,0.9924,0,0.9797,0.9801,0.981,0.982,0.9828,0.9836,0.9845,0.9849,0.9859,0.9865,0.9875,0.9881,0.9893,0.9902,0.9912,0.9918,0.9922,0.9923,0.9924,0.9922,0.9918,0.992,0.9919,0.9923,0.9924,0.9924,0.9924,0.9924,0.9798,0.9804,0.9814,0.9823,0.9831,0.9838,0.9844,0.9852,0.986,0.987,0.9875,0.9884,0.9893,0.9907,0.9912,0.9919,0.992,0.9922,0.9922,0.9922,0.9921,0.9917,0.9921,0.9921,0.9921,0.9921,0.9921,0,0.9801,0.9808,0.9817,0.9828,0.9835,0.9839,0.9848,0.9854,0.9862,0.987,0.9878,0.9887,0.9896,0.9905,0.9913,0.9917,0.9919,0.9919,0.9919,0.992,0.992,0.9918,0.9917,0.9917,0.9917,0.9917,0.9917,0.9917,0.9804,0.9813,0.9818,0.9831,0.9837,0.9846,0.9851,0.9858,0.9864,0.9875,0.9882,0.9888,0.9896,0.9905,0.9913,0.9915,0.9918,0.9917,0.9919,0.9919,0.992,0.992,0.9918,0.9917,0.9917,0.9918,0.9918,0.9918]},{"header":{"parameterUnit":"m.s-1","parameterCategory":1,"la1":30.2991,"la2":30.254,"lo1":-89.0895,"lo2":-89.0444,"dy":0.0017,"dx":0.0017,"nx":28,"ny":28,"refTime":"2023-11-05T09:00:00:Z","depth":0,"parameterNumber":3,"parameterNumberName":"V-component_of_WINDS"},"data":[0,0,0,0,0,0,0,0,0,0,0,0,0,0,0,0,0,0,0,0,0,0,0,0,0,0,0,0,0,0,0,0,0,0,0,0,0,0,0,0,0,0,0,0,0,0,0,0,0,0,0,0,0,0,0,0,0,0,0.4631,0.4631,0,0.4569,0.4568,0.4567,0.4542,0.4542,0.4542,0.4542,0.4475,0.4474,0.4472,0,0,0,0,0,0,0,0,0,0,0,0,0,0.4727,0.4726,0.4631,0.463,0.463,0.4569,0.4568,0.4567,0.4542,0.4542,0.4542,0.4542,0.4476,0.4474,0.4472,0,0,0,0,0,0,0,0,0,0,0,0,0,0.4677,0.4725,0.4631,0.461,0.4607,0.4569,0.4568,0.4567,0.4542,0.4542,0.4542,0.4542,0.4477,0.4474,0.4471,0.4449,0,0,0.4462,0.4461,0,0,0,0,0,0,0,0,0.468,0.4674,0.4614,0.4611,0.4608,0.4563,0.4577,0.4527,0.4541,0.4566,0.4542,0.4542,0.4504,0.4499,0.4487,0.4446,0.4443,0.4462,0.446,0.4459,0.4458,0,0,0,0,0,0,0,0.4683,0.4676,0.4606,0.4613,0.4609,0.4603,0.4596,0.4568,0.4535,0.4564,0.4562,0.4555,0.4503,0.449,0.4485,0.4442,0.4462,0.446,0.4458,0.4457,0.4379,0.4379,0,0,0,0,0,0,0.4691,0.4679,0.4608,0.4604,0.4645,0.4601,0.4593,0.4577,0.4535,0.4529,0.4555,0.4554,0.4494,0.4488,0.4483,0.4453,0.4459,0.4457,0.4455,0.438,0.4379,0.4379,0,0,0,0,0,0,0.4693,0.4685,0.4611,0.4641,0.4631,0.4599,0.4581,0.4576,0.4563,0.4528,0.4522,0.4548,0.4494,0.4487,0.4458,0.4451,0.4455,0.4453,0.438,0.438,0.4379,0.4395,0,0,0,0,0,0,0.4696,0.4686,0.4677,0.4641,0.463,0.4588,0.4581,0.4575,0.4558,0.4557,0.452,0.4514,0.4494,0.4462,0.4455,0.4447,0.445,0.438,0.438,0.4379,0.4395,0.4395,0.4396,0,0,0,0,0,0.4699,0.4684,0.4677,0.4669,0.4619,0.4587,0.4581,0.4559,0.4558,0.4549,0.4527,0.4515,0.4453,0.4459,0.4451,0.4442,0.4381,0.438,0.4379,0.4395,0.4395,0.4396,0,0,0,0,0,0,0.4719,0.4679,0.4671,0.4643,0.4619,0.4583,0.4571,0.456,0.4535,0.4534,0.4507,0.4499,0.4472,0.4454,0.4462,0.4418,0.4416,0.4413,0.4431,0.4431,0.4431,0.4435,0.4448,0,0,0,0,0,0.4721,0.4699,0.4665,0.4644,0.4632,0.4604,0.4589,0.4575,0.4548,0.4537,0.4513,0.4487,0.4462,0.4445,0.442,0.4393,0.4384,0.4383,0.4383,0.4383,0.4381,0.4365,0.4363,0.4376,0.4376,0.4376,0,0,0.4723,0.4698,0.4686,0.4647,0.4626,0.4604,0.4595,0.4572,0.4555,0.4533,0.4505,0.4486,0.4455,0.4427,0.4413,0.4411,0.4376,0.4382,0.4383,0.438,0.4364,0.4363,0.4362,0.4376,0.4376,0.4376,0,0,0.4715,0.4695,0.4675,0.4655,0.4624,0.4605,0.4601,0.4566,0.4553,0.4524,0.4508,0.4487,0.4444,0.4423,0.4406,0.4391,0.4379,0.4384,0.4384,0.4369,0.4368,0.4366,0.436,0.4359,0.4382,0.4382,0.4382,0,0.4721,0.4688,0.4666,0.4643,0.4627,0.4608,0.4587,0.4568,0.4531,0.4519,0.4518,0.4463,0.4441,0.4407,0.4404,0.4391,0.4385,0.4387,0.437,0.4368,0.4367,0.4361,0.4359,0.4382,0.4382,0.4382,0.4382,0,0.4697,0.4673,0.4661,0.4626,0.4608,0.4586,0.4561,0.4545,0.4532,0.4514,0.4484,0.4457,0.4426,0.4417,0.4404,0.4381,0.4381,0.4375,0.4372,0.4367,0.4361,0.4358,0.4383,0.4383,0.4383,0.4383,0,0,0.4699,0.4653,0.4648,0.4632,0.4597,0.4578,0.4556,0.4526,0.4513,0.4488,0.4468,0.4432,0.4427,0.4408,0.4392,0.4379,0.4368,0.4374,0.4373,0.4373,0.4341,0.4345,0.4343,0.436,0.436,0.436,0.4343,0,0.4686,0.4646,0.4626,0.4594,0.4572,0.4554,0.4534,0.451,0.4492,0.447,0.445,0.4425,0.442,0.4409,0.4395,0.4372,0.4361,0.4373,0.434,0.434,0.4348,0.4339,0.4344,0.4329,0.434,0.434,0.434,0,0.4665,0.4641,0.4607,0.4575,0.4565,0.4548,0.4519,0.4499,0.4471,0.4459,0.4439,0.4423,0.4398,0.4398,0.4363,0.4372,0.4357,0.4345,0.4343,0.4339,0.4339,0.4334,0.4324,0.4322,0.4336,0.4336,0.4336,0,0.467,0.4628,0.4603,0.459,0.4551,0.454,0.4523,0.4496,0.4479,0.4454,0.4443,0.4415,0.4399,0.4377,0.4355,0.4357,0.4322,0.432,0.431,0.4311,0.4302,0.4303,0.429,0.4295,0.4295,0.4295,0.4295,0,0.4657,0.4637,0.4604,0.4588,0.4565,0.4542,0.4519,0.4501,0.4477,0.4457,0.444,0.4421,0.4393,0.437,0.4353,0.4326,0.4319,0.4308,0.4303,0.4309,0.431,0.4298,0.4298,0.4294,0.4294,0.4295,0.4295,0,0.4657,0.4635,0.4605,0.4572,0.4563,0.4547,0.4518,0.4502,0.4484,0.4458,0.4451,0.4422,0.4394,0.437,0.4334,0.4322,0.4294,0.4289,0.4304,0.4301,0.4292,0.4293,0.427,0.4266,0.4275,0.4275,0.4275,0,0.465,0.4634,0.4599,0.4585,0.4569,0.4545,0.4529,0.4506,0.4489,0.4456,0.4444,0.4416,0.4391,0.4349,0.4324,0.4296,0.4289,0.4283,0.4284,0.4291,0.4288,0.4289,0.4287,0.4283,0.4283,0.4283,0.4283,0,0.4639,0.4629,0.4606,0.4579,0.456,0.4537,0.4514,0.4503,0.4476,0.4458,0.443,0.4411,0.4375,0.4346,0.4316,0.4298,0.4285,0.4283,0.4279,0.4284,0.4293,0.4287,0.4303,0.4283,0.4283,0.4283,0.4283,0.4283,0.4635,0.462,0.4593,0.4568,0.4548,0.4527,0.451,0.449,0.4467,0.4435,0.4423,0.4395,0.4367,0.4325,0.4307,0.4284,0.4282,0.4277,0.4275,0.4274,0.4274,0.4298,0.4279,0.4279,0.4279,0.4279,0.4279,0,0.4623,0.4605,0.4582,0.455,0.453,0.4522,0.4496,0.4479,0.4455,0.4431,0.4408,0.4376,0.4349,0.4322,0.4293,0.428,0.4273,0.4273,0.4273,0.4269,0.4279,0.4284,0.4278,0.4278,0.4278,0.4278,0.4278,0.4278,0.4614,0.4588,0.4575,0.4538,0.452,0.4493,0.4479,0.4459,0.444,0.4405,0.4383,0.4366,0.434,0.431,0.4284,0.4277,0.4266,0.4267,0.4259,0.4268,0.4268,0.4268,0.4274,0.4266,0.4266,0.425,0.425,0.425]}]]